Wind_Speed
28 27 26 26 25 25 25 24 24 25 26 25 26 27 29 32 32 32 32 30 27 24 19 14 10 12 17 22 15 25 26 18 17 20 24 29 31 24 24 25 25 31 32 26 26
33 32 31 30 29 28 28 29 28 26 26 26 28 29 31 32 33 34 32 31 25 19 14 16 12 8 14 20 12 18 16 13 16 13 16 27 18 30 13 24 26 30 32 31 30
38 36 34 34 33 32 32 31 28 28 28 29 29 31 31 33 33 32 32 31 21 19 18 13 12 6 15 11 7 7 2 3 4 12 13 11 14 24 15 17 20 28 32 32 28
40 40 39 38 36 32 31 31 30 31 30 29 29 30 30 32 31 31 30 27 21 17 15 13 11 9 7 4 3 9 5 4 4 7 9 8 5 15 16 15 18 23 30 33 33
42 40 39 38 37 36 36 35 34 32 31 31 30 29 30 29 30 30 28 26 25 24 21 15 6 12 9 8 3 7 7 6 5 4 5 5 7 9 18 17 17 19 23 25 31
46 45 43 42 41 40 38 38 37 35 34 35 33 31 30 29 30 30 29 28 28 26 27 21 16 15 12 11 8 9 13 10 5 5 3 8 14 4 13 20 19 18 16 20 24
47 47 46 45 43 42 40 39 39 39 38 38 38 35 33 33 32 31 31 29 29 29 29 24 19 16 15 11 10 12 15 10 4 1 6 3 5 1 8 13 14 20 14 14 20
50 49 48 47 45 44 44 44 43 43 43 41 41 38 36 35 35 33 32 31 30 29 28 24 19 16 16 13 10 13 14 13 5 6 12 8 1 3 9 7 12 13 15 13 15
52 53 51 50 49 47 46 48 48 48 47 46 45 42 39 38 37 36 35 35 32 30 26 23 20 18 15 12 10 15 16 14 10 7 16 7 1 7 7 4 9 10 10 14 15
59 55 53 50 50 48 48 49 50 50 49 50 49 47 43 42 41 38 38 36 32 29 24 21 20 20 16 12 12 18 14 17 17 12 20 12 2 6 7 6 4 7 10 10 14
63 61 60 58 57 55 54 53 52 52 51 51 48 47 45 43 42 41 38 37 31 27 24 19 19 21 19 14 12 14 21 21 18 17 26 22 13 12 11 6 3 4 8 7 6
63 62 63 62 61 58 57 56 53 53 50 50 50 47 45 44 41 41 35 32 30 27 25 20 20 21 21 17 14 14 21 24 22 18 19 32 28 10 7 7 6 2 5 7 5
59 60 61 60 59 57 55 54 51 49 47 45 44 42 42 37 35 34 31 30 30 27 25 22 21 18 20 19 18 17 19 23 23 18 17 19 22 17 12 9 6 3 1 1 1
56 58 58 57 56 53 50 48 45 44 41 38 40 37 35 32 31 32 27 27 29 26 26 23 23 20 18 18 20 19 21 22 20 19 20 18 19 25 19 14 6 8 6 5 6
57 58 58 57 56 55 54 50 48 45 40 38 37 35 32 29 29 28 25 27 26 24 27 23 24 24 19 19 22 20 23 23 26 24 21 21 21 25 24 18 12 12 11 7 4
47 48 47 49 55 57 55 55 53 51 45 40 39 37 34 31 27 27 27 25 24 25 28 25 23 21 19 19 22 21 20 19 27 25 27 27 27 24 23 22 18 13 18 19 13
29 34 37 37 35 40 50 55 55 52 48 41 43 45 43 36 31 29 28 26 24 26 26 25 24 23 20 23 25 25 22 18 23 26 30 29 26 26 25 19 18 20 22 27 21
12 18 24 30 35 36 38 38 36 38 43 44 49 58 45 39 37 36 34 32 28 28 26 26 26 23 22 26 26 27 27 23 21 28 29 28 28 24 20 17 14 19 20 28 30
7 5 4 12 21 27 29 31 33 35 34 33 42 46 48 44 40 37 40 37 36 34 32 31 31 28 24 26 28 27 32 26 29 32 30 30 27 23 18 20 17 17 20 22 30
15 12 10 5 3 1 6 14 19 21 24 27 31 39 44 43 43 44 46 48 43 42 41 38 40 34 31 31 31 32 33 32 33 34 33 32 30 25 21 15 16 25 23 22 24
19 19 18 16 12 10 5 3 2 2 7 13 18 23 28 33 40 45 47 49 50 50 47 44 43 42 38 38 41 41 41 40 38 38 38 37 33 25 20 13 20 17 24 24 26
16 18 18 19 20 18 15 13 11 6 1 3 6 11 15 18 23 26 31 37 41 43 43 45 46 49 47 48 52 49 50 49 45 44 41 38 35 29 28 22 15 28 23 24 24
12 13 13 14 13 13 13 13 13 13 12 10 8 3 1 5 9 10 17 23 27 30 32 35 39 46 52 55 53 52 57 51 48 49 47 43 38 34 39 24 22 21 27 27 23
9 9 10 11 10 9 9 9 9 8 7 8 8 6 6 6 3 1 2 10 14 19 25 29 32 35 45 52 49 53 53 55 53 53 52 50 41 35 42 54 35 33 22 25 26
7 9 9 9 9 8 9 8 8 9 8 7 6 5 5 7 8 8 4 4 7 11 14 15 23 28 36 40 41 42 48 55 58 57 53 55 53 42 40 49 51 48 44 37 31
8 8 8 8 9 9 9 9 9 10 9 9 8 7 9 11 10 14 10 9 8 9 12 18 20 21 27 29 32 39 44 47 55 59 58 58 57 50 46 41 44 48 45 39 36
8 8 8 9 10 11 11 10 10 10 10 11 7 8 10 12 12 14 16 12 13 14 13 17 21 25 29 29 34 38 41 45 50 52 60 60 61 60 47 48 50 49 44 42 42
Wind_Direction
243 248 253 255 259 265 271 277 284 287 293 296 301 303 304 307 309 312 317 323 329 334 336 338 319 335 350 10 24 50 30 21 20 18 360 5 7 27 21 13 28 27 21 26 36
246 249 253 252 258 265 271 275 282 288 292 295 297 300 303 305 307 310 316 321 332 339 349 332 321 347 1 13 40 76 65 30 35 338 336 345 4 8 359 11 31 32 24 32 45
249 252 254 258 264 267 268 273 280 283 287 291 295 297 299 302 305 309 313 318 327 341 337 330 317 344 11 16 77 51 341 339 275 321 355 360 334 10 19 37 39 31 24 40 53
252 257 258 260 263 266 269 273 277 281 284 289 295 300 301 300 300 305 309 312 319 336 341 327 319 325 313 314 211 66 121 272 330 353 22 35 319 353 15 37 45 25 26 37 50
255 256 257 261 263 265 269 273 277 279 282 286 291 294 298 298 299 304 306 307 308 314 333 326 309 275 283 313 280 185 216 227 33 53 2 310 351 21 29 20 38 31 28 39 47
255 257 259 261 265 268 268 271 274 276 277 283 286 289 293 294 297 299 300 303 304 304 313 319 309 300 309 329 290 265 221 263 103 109 242 318 336 41 18 37 34 39 32 41 57
255 257 259 261 262 265 266 268 271 273 275 278 282 285 288 286 292 295 295 299 299 297 304 307 297 296 288 299 299 290 267 254 280 245 271 331 14 53 357 40 27 42 27 44 55
255 256 257 257 259 261 264 268 271 271 276 278 280 280 286 286 288 290 294 298 298 295 299 294 288 291 293 305 295 271 270 260 202 202 281 251 122 156 312 30 21 38 40 43 63
255 256 256 256 258 262 265 266 269 271 272 275 277 277 282 283 284 286 289 295 297 294 295 285 279 281 284 280 265 257 255 261 225 242 222 220 239 141 255 294 55 45 23 50 57
256 257 256 258 258 261 263 265 268 270 273 274 275 276 276 280 281 284 287 290 291 291 292 278 274 273 280 277 250 251 227 242 240 215 210 201 203 153 254 257 46 40 42 29 53
258 258 258 261 260 263 264 266 268 269 270 273 275 275 276 278 279 281 285 285 282 282 283 273 272 270 271 270 256 234 233 221 226 215 210 217 230 268 229 248 332 2 74 53 63
257 259 260 261 262 263 264 264 266 267 269 271 272 272 273 274 275 277 277 275 272 271 274 266 265 268 271 267 254 245 227 223 224 218 231 225 233 229 222 221 260 125 76 49 86
258 259 259 260 261 261 260 261 263 265 266 267 268 267 269 270 268 269 267 266 265 265 268 264 261 256 264 266 262 249 243 223 213 223 236 233 220 212 219 215 205 148 140 117 198
259 258 258 258 259 258 258 259 258 258 260 260 264 264 265 264 263 262 264 261 262 259 259 259 256 252 240 246 251 248 246 235 229 218 230 239 220 210 217 248 227 174 229 228 252
261 259 258 257 257 256 256 255 254 252 254 256 259 262 259 258 256 259 255 256 256 254 253 247 251 252 252 244 245 238 240 238 235 228 226 231 223 214 227 231 214 221 213 220 256
262 259 256 255 253 253 253 253 252 251 251 256 258 257 255 254 256 255 254 252 253 251 251 252 249 253 252 246 245 243 238 230 236 229 226 222 225 222 206 211 229 226 230 216 170
265 257 251 252 255 251 248 250 252 254 252 250 253 252 249 250 252 251 253 249 246 248 252 251 248 241 240 245 247 248 239 228 234 234 230 230 230 226 226 214 227 237 219 224 207
290 263 250 248 249 250 251 253 253 251 246 240 238 243 247 250 249 251 248 251 246 248 251 251 251 245 241 239 241 250 246 231 233 240 237 235 238 238 240 232 229 242 229 219 219
14 2 291 251 252 252 253 252 251 250 249 245 244 248 249 244 245 248 254 249 249 249 251 255 253 255 249 251 250 243 246 236 224 229 236 234 237 244 239 243 250 255 236 231 221
40 44 42 47 43 62 249 244 243 244 244 240 233 236 243 245 247 244 242 249 249 252 254 256 260 255 255 251 249 247 248 243 236 228 230 237 234 227 233 225 244 254 236 230 222
53 56 54 53 55 59 62 77 79 218 231 234 237 241 242 241 242 244 248 250 253 252 252 254 256 256 250 248 249 247 246 244 239 237 225 227 234 226 215 193 254 248 236 232 225
46 54 59 60 61 63 64 65 71 64 24 286 248 238 241 242 244 246 246 248 250 251 249 248 244 245 238 235 239 247 246 243 243 241 236 230 221 211 190 193 259 259 235 224 229
31 39 42 46 54 62 64 67 68 68 66 66 72 63 347 266 266 263 253 248 246 247 248 248 249 249 252 244 240 240 248 247 246 249 249 238 228 203 186 190 198 235 242 218 228
9 16 22 31 35 35 35 36 35 35 38 45 42 45 30 4 11 302 278 274 266 259 252 250 246 243 245 249 247 242 242 249 246 244 250 253 240 226 200 206 227 235 242 243 234
342 352 360 357 5 8 9 10 6 5 11 11 356 11 344 324 336 327 352 338 316 302 289 275 267 262 257 256 256 251 243 239 246 249 244 249 247 239 223 215 223 235 245 240 242
324 322 320 330 329 340 349 348 346 355 355 6 350 349 324 318 321 325 343 337 325 319 322 314 301 289 273 263 259 257 249 244 240 241 246 244 249 241 237 229 230 234 236 239 243
336 328 322 319 313 315 323 327 342 348 352 351 344 323 323 331 317 308 316 328 329 331 329 320 311 300 284 267 257 250 251 249 242 240 240 241 244 246 239 235 232 232 235 240 242
Height
11030 11031 11033 11034 11035 11035 11036 11037 11037 11036 11035 11034 11030 11026 11022 11017 11015 11014 11012 11014 11014 11009 11006 11006 11002 11000 10998 10994 10991 10987 10984 10981 10980 10978 10975 10976 10971 10968 10964 10963 10957 10948 10942 10935 10928
11025 11027 11028 11029 11031 11032 11032 11033 11033 11033 11032 11030 11028 11024 11019 11015 11012 11010 11008 11009 11010 11007 11006 11002 11001 11001 10998 10992 10991 10990 10987 10982 10981 10979 10978 10977 10975 10970 10963 10961 10958 10953 10949 10937 10930
11021 11022 11023 11025 11026 11027 11028 11029 11029 11028 11028 11026 11024 11021 11017 11012 11009 11007 11004 11003 11009 11006 11003 11002 11000 11001 10996 10992 10990 10991 10988 10987 10986 10983 10982 10979 10973 10974 10969 10966 10965 10958 10954 10945 10939
11016 11017 11018 11019 11021 11022 11023 11024 11024 11024 11023 11022 11020 11018 11014 11010 11007 11005 11003 10999 11000 11005 11005 11000 10997 10997 10996 10994 10991 10989 10990 10987 10983 10982 10986 10980 10979 10977 10972 10968 10964 10961 10959 10951 10944
11009 11010 11011 11013 11014 11016 11017 11017 11018 11018 11018 11017 11016 11014 11012 11008 11005 11002 11000 10998 10996 10994 10995 11000 11002 10995 10995 10995 10992 10986 10987 10986 10984 10984 10981 10977 10976 10975 10972 10970 10967 10967 10966 10960 10952
11000 11002 11004 11006 11007 11008 11009 11010 11011 11011 11012 11011 11011 11010 11008 11006 11002 11000 10998 10996 10994 10993 10991 10993 10992 10990 10991 10991 10988 10987 10985 10984 10985 10982 10979 10980 10979 10977 10978 10975 10973 10971 10971 10968 10962
10992 10994 10996 10998 10999 10999 11001 11002 11003 11004 11005 11005 11004 11004 11004 11002 11000 10998 10995 10994 10992 10990 10988 10988 10987 10986 10986 10987 10987 10985 10982 10981 10984 10982 10981 10981 10979 10979 10978 10977 10978 10975 10974 10971 10967
10982 10984 10987 10989 10990 10991 10993 10994 10995 10996 10997 10997 10998 10998 10998 10997 10996 10994 10992 10990 10989 10986 10985 10985 10984 10984 10982 10983 10981 10979 10978 10980 10979 10981 10979 10981 10980 10979 10979 10979 10978 10976 10978 10974 10970
10971 10973 10976 10978 10981 10983 10984 10986 10986 10987 10988 10989 10990 10991 10992 10990 10990 10989 10987 10985 10985 10982 10981 10980 10980 10980 10981 10981 10977 10974 10975 10977 10978 10979 10978 10980 10979 10978 10980 10979 10979 10977 10980 10977 10974
10960 10963 10966 10969 10971 10974 10975 10976 10976 10977 10979 10979 10980 10981 10984 10983 10982 10983 10981 10980 10980 10978 10977 10976 10976 10976 10978 10978 10977 10972 10976 10974 10975 10977 10978 10979 10978 10978 10980 10979 10979 10978 10979 10979 10977
10949 10951 10955 10958 10960 10963 10966 10966 10968 10969 10970 10969 10972 10972 10974 10975 10974 10975 10975 10973 10974 10973 10972 10973 10973 10972 10972 10973 10973 10973 10972 10974 10974 10975 10978 10978 10978 10976 10976 10978 10980 10981 10980 10982 10981
10936 10938 10941 10944 10946 10950 10953 10954 10957 10956 10959 10959 10962 10963 10964 10965 10965 10966 10968 10967 10967 10967 10967 10969 10969 10967 10967 10967 10967 10967 10969 10971 10971 10972 10975 10977 10977 10977 10977 10979 10981 10981 10980 10981 10981
10923 10924 10927 10930 10933 10936 10938 10941 10944 10944 10948 10949 10951 10952 10953 10956 10956 10957 10959 10959 10959 10961 10961 10964 10963 10964 10962 10961 10961 10961 10962 10966 10971 10972 10972 10972 10973 10973 10975 10978 10979 10979 10981 10981 10983
10908 10909 10913 10916 10918 10922 10925 10929 10932 10933 10937 10940 10940 10943 10944 10947 10948 10947 10951 10952 10951 10954 10954 10957 10957 10958 10959 10957 10955 10956 10956 10959 10965 10967 10968 10970 10972 10972 10972 10974 10977 10978 10981 10981 10983
10893 10895 10899 10902 10904 10907 10911 10916 10919 10922 10927 10930 10931 10933 10936 10937 10939 10941 10943 10943 10945 10947 10947 10951 10949 10950 10954 10954 10951 10952 10953 10958 10957 10962 10965 10964 10965 10970 10971 10973 10974 10976 10979 10982 10981
10878 10880 10883 10885 10888 10893 10898 10900 10904 10910 10916 10922 10923 10925 10926 10928 10932 10931 10934 10936 10938 10939 10938 10943 10946 10947 10948 10948 10946 10947 10950 10954 10951 10956 10956 10959 10960 10966 10969 10969 10969 10973 10976 10978 10980
10867 10868 10871 10874 10877 10878 10881 10884 10892 10900 10906 10914 10911 10909 10913 10919 10922 10924 10926 10929 10931 10930 10932 10935 10938 10940 10941 10942 10941 10941 10944 10947 10945 10948 10948 10952 10954 10959 10962 10967 10967 10969 10973 10976 10976
10861 10861 10862 10865 10866 10869 10871 10876 10882 10884 10888 10895 10891 10886 10904 10911 10914 10915 10918 10919 10923 10924 10926 10927 10930 10934 10935 10933 10933 10934 10937 10941 10943 10941 10945 10948 10951 10956 10959 10961 10963 10962 10965 10969 10973
10861 10859 10858 10858 10859 10861 10863 10866 10869 10872 10876 10881 10886 10887 10890 10899 10903 10907 10906 10911 10912 10916 10918 10920 10921 10925 10929 10928 10927 10928 10925 10934 10934 10933 10938 10942 10947 10951 10956 10958 10960 10960 10959 10961 10967
10862 10859 10858 10857 10857 10857 10858 10859 10860 10864 10867 10871 10874 10876 10879 10886 10891 10893 10895 10893 10902 10905 10908 10913 10911 10918 10920 10920 10918 10918 10918 10921 10923 10928 10932 10935 10939 10944 10947 10954 10955 10956 10954 10954 10959
10865 10862 10860 10858 10858 10856 10856 10857 10858 10860 10861 10863 10867 10871 10873 10875 10876 10880 10883 10887 10889 10891 10897 10902 10903 10906 10910 10910 10906 10905 10905 10906 10910 10915 10922 10925 10931 10939 10943 10947 10945 10951 10953 10951 10953
10869 10867 10865 10863 10861 10860 10860 10859 10858 10859 10859 10861 10863 10864 10865 10867 10868 10872 10874 10875 10878 10879 10885 10887 10889 10887 10893 10893 10886 10895 10893 10895 10900 10902 10908 10918 10924 10930 10940 10938 10937 10940 10946 10948 10949
10871 10869 10868 10866 10865 10864 10863 10863 10862 10862 10862 10863 10863 10864 10864 10865 10866 10868 10867 10868 10868 10869 10872 10875 10879 10881 10878 10876 10884 10888 10882 10892 10895 10895 10897 10904 10914 10925 10931 10929 10930 10928 10934 10942 10944
10871 10871 10870 10868 10868 10867 10866 10865 10865 10865 10864 10865 10865 10865 10865 10864 10863 10864 10865 10863 10864 10863 10863 10864 10866 10866 10862 10861 10874 10877 10883 10879 10883 10885 10888 10892 10906 10920 10925 10918 10917 10921 10928 10934 10940
10872 10871 10870 10869 10868 10867 10867 10865 10865 10864 10864 10864 10863 10863 10863 10862 10861 10861 10862 10862 10860 10859 10859 10860 10858 10858 10856 10860 10862 10865 10867 10870 10870 10874 10880 10879 10886 10904 10916 10920 10921 10922 10922 10927 10931
10871 10871 10870 10869 10867 10866 10866 10864 10864 10864 10863 10863 10862 10862 10860 10859 10859 10857 10858 10857 10858 10857 10855 10852 10851 10849 10847 10850 10852 10848 10850 10852 10859 10860 10864 10869 10872 10886 10896 10906 10908 10906 10910 10916 10919
10870 10869 10868 10867 10866 10865 10864 10864 10862 10862 10862 10860 10860 10859 10858 10857 10855 10854 10853 10854 10853 10852 10851 10848 10844 10839 10835 10839 10838 10835 10834 10836 10840 10845 10848 10854 10858 10866 10884 10887 10888 10893 10901 10907 10910